Charter Quote
Worldwide +1-877-727-2538 Call
Select Language Lang
SAFETY RELIABILITY EXPERIENCE

Private Jet Charter Services - Vereeniging Airport (FAVV)

Paramount Business Jets offers private jet charter flights and luxury airliner charters to and from Vereeniging Airport.

AIRPORT INFORMATION
ICAOFAVV
LOCATIONVereeniging, South Africa
FACILITY TYPEAIRPORT
Runway Length (ft) Width (ft) Surface Type Elevation (ft)
21/03 5266 72 ASP 4842.81967
33/15 3724 52 ASP 4842.81967

At Paramount Business Jets you can hire chartered private jets to and from Vereeniging Airport with as little as 4 hours of notice. All flights booked via Paramount Business Jets are operated by certified direct air carriers that meet and exceed the FAA part 135 and 121 protocol or a foreign equivalent safety authority. Furthermore, Paramount Business Jets subscribes to ARGUS for their third party safety checks of operators, aircraft, and crews prior each and every flight to and from Vereeniging Airport and worldwide.

  • Quote a trip using Vereeniging Airport or call us 24/7 - 365 days a year at +1-877-727-2538.
Questions? Call +1-877-727-2538

METAR Weather Data at Vereeniging Airport, FAVV

STATIONFAVV
OBSERVEDMon Aug 19, 03:00 UTC
NOWMon Aug 19, 03:25 UTC
AGE25 min ago
WINDNW at 6 mph
METARFAVV 190300Z AUTO 31005KT //// // ////// 13/04 Q1026

Call us on +1-877-727-2538 (24 Hours) to Hire a Private Jet or Get a Quick Quote.

Find Airports Near any Location

Processing
...